OBJECT F, 100785

Orbit data source: Space-Track

You're viewing an uncataloged RSO

Recently launched and/or uncataloged RSOs may have evolving metadata. Metadata may include the following, but is not limited to: Owner, Manufacturer, Bus, Motor, and Mission.

OBJECT F, 100785 is a Chinese satellite in SSO that was launched on Mon, 21 Sep 2026 UTC launched from the Jiuquan Satellite Launch Center, China (JSC). Unknown objects in Earth's orbit typically refer to objects detected orbiting the Earth but have not yet been identified or cataloged. These objects could be anything from previously untracked satellites, spent rocket stages, debris from satellite collisions, or even natural meteoroids temporarily captured by Earth's gravity.

Loading next visibility...
Identifier
100785, 2026-220F
Orbit
SSO
Country
Flag of CNCN / PRC
Related business
None
Manufacturer
Unknown
Mission
Operational spacecraft
Bus & Motor
Unknown
Mass
Unknown
Launch date (UTC)
Icon of a cake. It is the launch day of the satellite!2026-09-21 (11 hours ago)
Launch vehicle
Unknown
Launch site
Jiuquan Satellite Launch Center, China (JSC)
Object type
Unknown
Shape & HBR
Unknown
Radar Cross Section
RCS unknown

Expand to show TLE details & history
Last TLE update: 1 day ago

TLE from 1 day ago
0 OBJECT F
1 A0785U 26220F   26263.67626944  .00000480  00000-0  32571-4 0  9999
2 A0785  97.5448 337.1426 0014092 281.6816  78.2832 15.10972206    84
Epoch: 2026-09-20T16:13Z
TLE epoch observation values (Epoch: 2026-09-20T16:13:49.679Z)
Latitude
-0.00006°
Longitude
94.11858°
Altitude
534.343 km
Speed
7.597 km/s
True Right ascension
22h 28m 34s
True Declination
0° 00' 00"
Sunlit
Object was in full shadow at epoch
Visualization orbit readout
Latitude
Unknown
Longitude
Unknown
Altitude
Unknown
Speed
Unknown
Apparent Right ascension
Unknown
Apparent Declination
Unknown
Sunlit
N/A
Visualization observer readout
Local Sidereal Time
15:37:43
Azimuth
Unknown
Elevation
Unknown
Doppler factor
Unknown
Orbital elements
Apogee altitude
539.953 km
Perigee altitude
520.482 km
Semi-major axis
6,908.355 km
Eccentricity
0.00141
Inclination
97.5448°
RAAN
337.1426°
Arg. of periapsis
281.6816°
True anomaly
78.44137°
Mean anomaly
78.2832°
Eccentric anomaly
78.36228°
Mean motion
3.77991 °/min
Orbital period
95.24 mins
BSTAR
0.000032571
Loading maneuver chart data...
Computing Atmospheric mass density...
Loading historical data...
Loading historical data...
Loading historical data...
Loading historical data...
Loading historical data...
Loading historical data...
Loading historical data...

Documentation

Showing up to 5 results
|